sat.trackr.live / text

‹ back to catalog

STARLINK-5485

NORAD 57261 · 2023-094AV

PAYLOAD ACTIVE UNKNOWN

§ Identity

Operator
Country
US
Launch date
2023-07-07
Launch site
AFWTR
Launch vehicle
Mass (kg)
RCS (m²)

Purposes: comms

External: N2YO · Heavens-Above · Gunter

§ Orbital elements

Epoch: 2026-09-20T14:06:53.610336Z

Period
94.27 min
Inclination
43.0034°
Eccentricity
0.0001256
Mean motion
15.27573751 rev/d
Perigee alt
482.2 km
Apogee alt
483.9 km
Semi-major
6,861.2 km
B*
-2.7603e-6
RAAN
9.9501°
Arg perigee
266.4568°
Mean anomaly
93.6140°
Rev number
17,692

§ Raw data

STARLINK-54851 57261U 23094AV  26263.58812049 -.00000338  00000+0 -27603-5 0  99932 57261  43.0034   9.9501 0001256 266.4568  93.6140 15.27573751176923

JSON: /api/v1/satellites/57261 · /tle

For live sub-satellite position, see the globe view (requires WebGL).

§ Visibility from observer

Set your observer location to see the next 7 days of passes ≥ 10°. The values pass through the URL so the page stays shareable.

No JS? Fill the form by hand. The geolocation button needs JavaScript.